IGO822 VECC-VEIM

Flight info

Callsign IGO822
Flight time N/A
Altitude 37000
Route NOKAT2E NOKAT B593 CML DCT POREG
Aircraft A20N/M-SDE2E3FGHIRWXY/LB1

Departure

Time 2026-05-08 09:54
Airport Netaji Subhash Chandra Bose International Airport (VECC)

Arrival

Time N/A
Airport Bir Tikendrajit International Airport (VEIM)
Time Latitude Longitude Altitude Speed Heading
2026-05-08 08:41 22.64342 88.44069 29 ft 0 kts 277°
2026-05-08 09:44 22.64339 88.44094 29 ft 4 kts 277°
2026-05-08 09:44 22.64335 88.44123 29 ft 4 kts 275°
2026-05-08 09:45 22.64337 88.44150 29 ft 4 kts 236°
2026-05-08 09:45 22.64355 88.44165 29 ft 2 kts 188°
2026-05-08 09:45 22.64357 88.44165 29 ft 0 kts 187°
2026-05-08 09:48 22.64342 88.44163 29 ft 4 kts 187°
2026-05-08 09:48 22.64308 88.44158 29 ft 6 kts 187°
2026-05-08 09:48 22.64254 88.44151 29 ft 9 kts 187°
2026-05-08 09:48 22.64181 88.44141 29 ft 12 kts 187°
2026-05-08 09:49 22.64121 88.44133 29 ft 6 kts 187°
2026-05-08 09:49 22.64068 88.44126 29 ft 8 kts 186°
2026-05-08 09:49 22.64016 88.44158 28 ft 11 kts 114°
2026-05-08 09:49 22.64005 88.44247 29 ft 10 kts 96°
2026-05-08 09:50 22.64053 88.44294 28 ft 12 kts
2026-05-08 09:50 22.64115 88.44301 28 ft 7 kts
2026-05-08 09:50 22.64163 88.44324 28 ft 9 kts 56°
2026-05-08 09:50 22.64185 88.44394 29 ft 11 kts 71°
2026-05-08 09:51 22.64220 88.44475 30 ft 13 kts 66°
2026-05-08 09:51 22.64254 88.44560 29 ft 7 kts 67°
2026-05-08 09:51 22.64254 88.44561 29 ft 0 kts 67°
2026-05-08 09:53 22.64258 88.44570 29 ft 3 kts 67°
2026-05-08 09:53 22.64275 88.44613 29 ft 9 kts 66°
2026-05-08 09:53 22.64330 88.44651 29 ft 11 kts
2026-05-08 09:53 22.64486 88.44669 27 ft 50 kts
2026-05-08 09:54 22.65060 88.44736 27 ft 118 kts
2026-05-08 09:54 22.66110 88.44866 143 ft 175 kts
2026-05-08 09:54 22.67262 88.45005 962 ft 163 kts
2026-05-08 09:54 22.68360 88.45348 1332 ft 174 kts 39°
2026-05-08 09:55 22.69023 88.46489 1518 ft 195 kts 72°
2026-05-08 09:55 22.69406 88.47955 1834 ft 207 kts 73°
2026-05-08 09:55 22.69816 88.49470 2303 ft 211 kts 73°
2026-05-08 09:55 22.70239 88.51022 2713 ft 219 kts 73°
2026-05-08 09:56 22.70681 88.52607 3219 ft 220 kts 72°
2026-05-08 09:56 22.71146 88.54255 3479 ft 241 kts 72°
2026-05-08 09:56 22.71666 88.56082 3837 ft 265 kts 73°
2026-05-08 09:56 22.72225 88.58053 4480 ft 279 kts 73°
2026-05-08 09:57 22.73380 88.62129 6262 ft 287 kts 72°
2026-05-08 09:57 22.73974 88.64214 6815 ft 292 kts 72°
2026-05-08 09:57 22.74571 88.66313 6973 ft 292 kts 72°
2026-05-08 09:58 22.75167 88.68415 7012 ft 292 kts 72°
2026-05-08 09:58 22.75747 88.70494 7012 ft 291 kts 75°
2026-05-08 09:58 22.76094 88.72673 7290 ft 297 kts 81°
2026-05-08 09:58 22.76399 88.74884 8219 ft 297 kts 81°
2026-05-08 09:59 22.76713 88.77105 9062 ft 299 kts 80°
2026-05-08 09:59 22.77033 88.79351 9846 ft 303 kts 81°
2026-05-08 09:59 22.77360 88.81670 10240 ft 322 kts 81°
2026-05-08 09:59 22.77708 88.84140 10620 ft 340 kts 80°
2026-05-08 10:00 22.77950 88.85834 11071 ft 344 kts 80°
2026-05-08 10:00 22.78313 88.88412 11812 ft 347 kts 81°
2026-05-08 10:00 22.78795 88.91903 12642 ft 352 kts 81°
2026-05-08 10:00 22.79042 88.93643 12765 ft 354 kts 78°
2026-05-08 10:01 22.79707 88.96241 13106 ft 361 kts 71°
2026-05-08 10:01 22.80726 88.99673 14098 ft 363 kts 71°
2026-05-08 10:01 22.81247 89.01444 14524 ft 367 kts 71°
2026-05-08 10:01 22.82021 89.04101 15143 ft 372 kts 72°
2026-05-08 10:02 22.82803 89.06801 15731 ft 377 kts 72°
2026-05-08 10:02 22.83583 89.09497 16290 ft 383 kts 72°
2026-05-08 10:02 22.84386 89.12268 16845 ft 388 kts 72°
2026-05-08 10:02 22.85204 89.15081 17415 ft 393 kts 72°
2026-05-08 10:03 22.86035 89.17921 17961 ft 398 kts 72°
2026-05-08 10:03 22.86878 89.20797 18486 ft 403 kts 72°
2026-05-08 10:03 22.87731 89.23709 18994 ft 408 kts 72°
2026-05-08 10:03 22.88592 89.26656 19499 ft 412 kts 72°
2026-05-08 10:04 22.89462 89.29638 19993 ft 417 kts 73°
2026-05-08 10:04 22.90339 89.32660 20463 ft 422 kts 73°
2026-05-08 10:04 22.91222 89.35714 20916 ft 427 kts 73°
2026-05-08 10:04 22.92114 89.38800 21375 ft 431 kts 73°
2026-05-08 10:05 22.93018 89.41916 21819 ft 435 kts 73°
2026-05-08 10:05 22.93936 89.45065 22250 ft 440 kts 73°
2026-05-08 10:05 22.94862 89.48243 22681 ft 444 kts 74°
2026-05-08 10:05 22.95793 89.51450 23089 ft 448 kts 74°
2026-05-08 10:06 22.96730 89.54688 23487 ft 452 kts 74°
2026-05-08 10:06 22.97676 89.57965 23874 ft 456 kts 74°
2026-05-08 10:06 22.98617 89.61222 24265 ft 460 kts 74°
2026-05-08 10:06 22.99576 89.64540 24664 ft 463 kts 74°
2026-05-08 10:07 23.00543 89.67886 25038 ft 466 kts 75°
2026-05-08 10:07 23.01515 89.71256 25407 ft 469 kts 75°
2026-05-08 10:07 23.02491 89.74650 25764 ft 473 kts 75°
2026-05-08 10:07 23.03476 89.78075 26110 ft 477 kts 75°
2026-05-08 10:08 23.04468 89.81521 26458 ft 480 kts 75°
2026-05-08 10:08 23.05466 89.84999 26792 ft 483 kts 75°
2026-05-08 10:08 23.06465 89.88491 27125 ft 487 kts 75°
2026-05-08 10:08 23.07476 89.92022 27437 ft 490 kts 75°
2026-05-08 10:09 23.08488 89.95562 27767 ft 493 kts 75°
2026-05-08 10:09 23.09507 89.99138 28084 ft 496 kts 75°
2026-05-08 10:09 23.10521 90.02730 28399 ft 499 kts 75°
2026-05-08 10:09 23.11532 90.06348 28724 ft 501 kts 75°
2026-05-08 10:10 23.12545 90.09985 29028 ft 504 kts 75°
2026-05-08 10:10 23.13565 90.13643 29345 ft 508 kts 75°
2026-05-08 10:10 23.14590 90.17323 29663 ft 511 kts 75°
2026-05-08 10:10 23.15609 90.20981 29971 ft 514 kts 75°
2026-05-08 10:11 23.16648 90.24709 30285 ft 517 kts 75°
2026-05-08 10:11 23.17695 90.28455 30594 ft 520 kts 75°
2026-05-08 10:11 23.18747 90.32224 30904 ft 522 kts 75°
2026-05-08 10:11 23.19802 90.36011 31214 ft 524 kts 75°
2026-05-08 10:12 23.20860 90.39817 31516 ft 527 kts 75°
2026-05-08 10:12 23.21918 90.43629 31910 ft 526 kts 75°
2026-05-08 10:12 23.22977 90.47434 32366 ft 525 kts 75°
2026-05-08 10:12 23.24054 90.51228 32805 ft 524 kts 74°
2026-05-08 10:13 23.25144 90.55014 33235 ft 524 kts 74°
2026-05-08 10:13 23.26240 90.58790 33678 ft 523 kts 74°
2026-05-08 10:13 23.27334 90.62558 34096 ft 522 kts 74°
2026-05-08 10:13 23.28420 90.66323 34503 ft 521 kts 74°
2026-05-08 10:14 23.29499 90.70084 34897 ft 520 kts 74°
2026-05-08 10:14 23.30210 90.72570 35150 ft 520 kts 74°